Stations météo

Publicité
Hurguada, Egypte (62463): Température de l'air & dewpoint: 15.10.2017 19:00:00 - 21.10.2017 19:00:00 (EET)Hurguada, Egypte (62463): Vitesse du vent: 15.10.2017 19:00:00 - 21.10.2017 19:00:00 (EET)Hurguada, Egypte (62463): Direction du vent: 15.10.2017 19:00:00 - 21.10.2017 19:00:00 (EET)Hurguada, Egypte (62463): reduced air pressure: 15.10.2017 19:00:00 - 21.10.2017 19:00:00 (EET)Hurguada, Egypte (62463): visibility: 15.10.2017 19:00:00 - 21.10.2017 19:00:00 (EET)
Date & Time tt [°C] td [°C] ff [km/h] ff [knt] dd ppp [hPa] vv [km]
21.10.2017 19:00:00 - - - - - - -
21.10.2017 18:00:00 - - - - - - -
21.10.2017 17:00:00 27,9 16,5 16 9 N 1012,1 10
21.10.2017 16:00:00 - - - - - - -
21.10.2017 15:00:00 - - - - - - -
21.10.2017 14:00:00 29,9 15,6 18 10 NNE 1012,1 10
21.10.2017 13:00:00 - - - - - - -
21.10.2017 12:00:00 - - - - - - -
21.10.2017 11:00:00 28,5 15,8 31 17 N 1014,5 10
21.10.2017 10:00:00 - - - - - - -
21.10.2017 09:00:00 - - - - - - -
21.10.2017 08:00:00 24,5 13,4 16 9 NNW 1015,1 10
21.10.2017 07:00:00 - - - - - - -
21.10.2017 06:00:00 - - - - - - -
21.10.2017 05:00:00 - - - - - - -
21.10.2017 04:00:00 - - - - - - -
21.10.2017 03:00:00 - - - - - - -
21.10.2017 02:00:00 24,0 12,6 26 14 NW 1014,0 10
21.10.2017 01:00:00 - - - - - - -
21.10.2017 00:00:00 - - - - - - -
20.10.2017 23:00:00 - - - - - - -
20.10.2017 22:00:00 - - - - - - -
20.10.2017 21:00:00 - - - - - - -
20.10.2017 20:00:00 26,1 16,1 13 7 N 1014,1 10
20.10.2017 19:00:00 - - - - - - -
20.10.2017 18:00:00 - - - - - - -
20.10.2017 17:00:00 27,8 17,6 22 12 N 1013,0 10
20.10.2017 16:00:00 - - - - - - -
20.10.2017 15:00:00 - - - - - - -
20.10.2017 14:00:00 30,2 18,1 24 13 NNE 1013,1 10
20.10.2017 13:00:00 - - - - - - -
20.10.2017 12:00:00 - - - - - - -
20.10.2017 11:00:00 29,1 16,3 24 13 N 1014,9 10
20.10.2017 10:00:00 - - - - - - -
20.10.2017 09:00:00 - - - - - - -
20.10.2017 08:00:00 24,1 13,0 15 8 NNW 1015,2 10
20.10.2017 07:00:00 - - - - - - -
20.10.2017 06:00:00 - - - - - - -
20.10.2017 05:00:00 21,5 11,3 11 6 NW 1013,7 10
20.10.2017 04:00:00 - - - - - - -
20.10.2017 03:00:00 - - - - - - -
20.10.2017 02:00:00 23,8 10,8 18 10 NW 1013,4 10
20.10.2017 01:00:00 - - - - - - -
20.10.2017 00:00:00 - - - - - - -
19.10.2017 23:00:00 25,3 14,1 16 9 WNW 1013,6 10
19.10.2017 22:00:00 - - - - - - -
19.10.2017 21:00:00 - - - - - - -
19.10.2017 20:00:00 26,2 13,3 5 3 NW 1013,4 10
19.10.2017 19:00:00 - - - - - - -
19.10.2017 18:00:00 - - - - - - -
19.10.2017 17:00:00 29,2 14,9 9 5 N 1012,1 10
19.10.2017 16:00:00 - - - - - - -
19.10.2017 15:00:00 - - - - - - -
19.10.2017 14:00:00 31,7 16,0 16 9 NNE 1012,0 10
19.10.2017 13:00:00 - - - - - - -
19.10.2017 12:00:00 - - - - - - -
19.10.2017 11:00:00 29,5 14,5 22 12 NNE 1013,7 10
19.10.2017 10:00:00 - - - - - - -
19.10.2017 09:00:00 - - - - - - -
19.10.2017 08:00:00 24,6 12,0 15 8 NW 1013,6 10
19.10.2017 07:00:00 - - - - - - -
19.10.2017 06:00:00 - - - - - - -
19.10.2017 05:00:00 22,0 13,8 18 10 NW 1012,3 10
19.10.2017 04:00:00 - - - - - - -
19.10.2017 03:00:00 - - - - - - -
19.10.2017 02:00:00 22,6 7,6 15 8 NNW 1011,8 10
19.10.2017 01:00:00 - - - - - - -
19.10.2017 00:00:00 - - - - - - -
18.10.2017 23:00:00 24,1 9,3 9 5 WNW 1012,2 10
18.10.2017 22:00:00 - - - - - - -
18.10.2017 21:00:00 - - - - - - -
18.10.2017 20:00:00 25,3 16,4 5 3 NW 1012,2 10
18.10.2017 19:00:00 - - - - - - -
18.10.2017 18:00:00 - - - - - - -
18.10.2017 17:00:00 29,6 13,4 9 5 N 1011,0 10
18.10.2017 16:00:00 - - - - - - -
18.10.2017 15:00:00 - - - - - - -
18.10.2017 14:00:00 - - - - - - -
18.10.2017 13:00:00 - - - - - - -
18.10.2017 12:00:00 - - - - - - -
18.10.2017 11:00:00 - - - - - - -
18.10.2017 10:00:00 - - - - - - -
18.10.2017 09:00:00 - - - - - - -
18.10.2017 08:00:00 24,7 14,8 24 13 NW 1014,0 10
18.10.2017 07:00:00 - - - - - - -
18.10.2017 06:00:00 - - - - - - -
18.10.2017 05:00:00 - - - - - - -
18.10.2017 04:00:00 - - - - - - -
18.10.2017 03:00:00 - - - - - - -
18.10.2017 02:00:00 23,0 14,4 21 11 WNW 1012,6 10
18.10.2017 01:00:00 - - - - - - -
18.10.2017 00:00:00 - - - - - - -
17.10.2017 23:00:00 - - - - - - -
17.10.2017 22:00:00 - - - - - - -
17.10.2017 21:00:00 - - - - - - -
17.10.2017 20:00:00 25,3 13,8 13 7 NNW 1013,1 10
17.10.2017 19:00:00 - - - - - - -
17.10.2017 18:00:00 - - - - - - -
17.10.2017 17:00:00 - - - - - - -
17.10.2017 16:00:00 - - - - - - -
17.10.2017 15:00:00 - - - - - - -
17.10.2017 14:00:00 28,7 11,3 28 15 N 1013,0 10
17.10.2017 13:00:00 - - - - - - -
17.10.2017 12:00:00 - - - - - - -
17.10.2017 11:00:00 28,0 12,8 35 19 N 1014,6 10
17.10.2017 10:00:00 - - - - - - -
17.10.2017 09:00:00 - - - - - - -
17.10.2017 08:00:00 23,6 15,0 26 14 NW 1015,7 10
17.10.2017 07:00:00 - - - - - - -
17.10.2017 06:00:00 - - - - - - -
17.10.2017 05:00:00 21,2 14,0 28 15 NW 1014,2 10
17.10.2017 04:00:00 - - - - - - -
17.10.2017 03:00:00 - - - - - - -
17.10.2017 02:00:00 22,4 11,6 28 15 NW 1013,9 10
17.10.2017 01:00:00 - - - - - - -
17.10.2017 00:00:00 - - - - - - -
16.10.2017 23:00:00 23,4 8,3 18 10 WNW 1014,6 10
16.10.2017 22:00:00 - - - - - - -
16.10.2017 21:00:00 - - - - - - -
16.10.2017 20:00:00 24,5 9,2 11 6 NW 1014,6 10
16.10.2017 19:00:00 - - - - - - -
16.10.2017 18:00:00 - - - - - - -
16.10.2017 17:00:00 28,0 10,7 24 13 N 1013,0 10
16.10.2017 16:00:00 - - - - - - -
16.10.2017 15:00:00 - - - - - - -
16.10.2017 14:00:00 29,4 11,1 34 18 N 1013,2 10
16.10.2017 13:00:00 - - - - - - -
16.10.2017 12:00:00 - - - - - - -
16.10.2017 11:00:00 28,4 11,6 37 20 N 1015,1 10
16.10.2017 10:00:00 - - - - - - -
16.10.2017 09:00:00 - - - - - - -
16.10.2017 08:00:00 23,8 13,3 29 16 NW 1015,7 10
16.10.2017 07:00:00 - - - - - - -
16.10.2017 06:00:00 - - - - - - -
16.10.2017 05:00:00 21,1 12,8 18 10 WNW 1014,5 10
16.10.2017 04:00:00 - - - - - - -
16.10.2017 03:00:00 - - - - - - -
16.10.2017 02:00:00 22,2 8,0 15 8 WNW 1013,9 10
16.10.2017 01:00:00 - - - - - - -
16.10.2017 00:00:00 - - - - - - -
15.10.2017 23:00:00 23,3 8,2 15 8 WNW 1014,4 10
15.10.2017 22:00:00 - - - - - - -
15.10.2017 21:00:00 - - - - - - -
15.10.2017 20:00:00 35,3 12,2 15 8 N 1014,0 10
15.10.2017 19:00:00 - - - - - - -

tt = Température de l'air
td = dewpoint
ff = Vitesse du vent
dd = Direction du vent
ppp = reduced air pressure
vv = visibility

stations d'obs. à proximité